Weather History for Rome, GA

Change the Weather History Date:

Sunday, February 24, 2013

  Actual Average Record
Temperature  
Mean Temperature 46 °F 46 °F  
Max Temperature 63 °F 58 °F 71 °F (2011)
Min Temperature 30 °F 35 °F 21 °F (1997)
Degree Days  
Heating Degree Days 18 19  
Month to date heating degree days 508  
Since 1 July heating degree days 2550  
Moisture  
Dew Point 34 °F    
Average Humidity 84    
Maximum Humidity 100    
Minimum Humidity 26    
Precipitation  
Precipitation 0.00 in 0.19 in 0.05 in (1999)
Month to date precipitation 4.07  
Year to date precipitation 8.89  
Snow  
Snow 0.00 in - - ()
Month to date snowfall  
Since 1 July snowfall  
Snow Depth -    
Sea Level Pressure  
Sea Level Pressure 29.98 in    
Wind  
Wind Speed 1 mph (North)    
Max Wind Speed 9 mph    
Max Gust Speed -    
Visibility 5 miles    
Events Fog    
T = Trace of Precipitation, MM = Missing Value Source: NWS Daily Summary

Daily Weather History Graph

Daily Weather History Graph

Search for Another Location

Airport:

Trip Planner

Search our weather history database for the weather conditions in past years. The results will help you decide how hot, cold, wet, or windy it might be!

Date:

Astronomy

Feb. 24, 2013 Rise Set
Actual Time 7:15 AM EST 6:32 PM EST
Civil Twilight 6:50 AM EST 6:58 PM EST
Nautical Twilight 6:20 AM EST 7:27 PM EST
Astronomical Twilight 5:51 AM EST 7:56 PM EST
Moon 5:43 PM EST (2/24) 6:11 AM EST (2/24)
Length of Visible Light 12h 07m
Length of Day
11h 17m
Waxing Gibbous, 99% of the Moon is Illuminated
Feb 24
Waxing Gibbous
Feb 25
Full
Mar 4
Last Quarter
Mar 11
New
Mar 19
First Quarter

Hourly Weather History & Observations

Time (EST) Temp. Windchill Dew Point Humidity Pressure Visibility Wind Dir Wind Speed Gust Speed Precip Events Conditions
12:11 AM 39.2 °F - 39.2 °F 100% 29.93 in 0.5 mi Calm Calm - N/A Fog Fog
12:31 AM 39.2 °F - 37.4 °F 93% 29.93 in 1.2 mi Calm Calm - N/A   Mostly Cloudy
12:34 AM 37.4 °F - 37.4 °F 100% 29.93 in 0.8 mi Calm Calm - N/A   Mist
12:44 AM 37.4 °F - 37.4 °F 100% 29.94 in 0.2 mi Calm Calm - N/A Fog Fog
12:53 AM 37.9 °F - 37.9 °F 100% 29.93 in 0.2 mi Calm Calm - N/A Fog Fog
1:05 AM 37.4 °F - 37.4 °F 100% 29.94 in 0.8 mi Calm Calm - N/A   Mist
1:13 AM 37.4 °F - 37.4 °F 100% 29.94 in 1.2 mi Calm Calm - N/A   Mist
1:17 AM 37.4 °F - 37.4 °F 100% 29.94 in 2.0 mi Calm Calm - N/A   Scattered Clouds
1:25 AM 35.6 °F - 35.6 °F 100% 29.94 in 1.0 mi Calm Calm - N/A   Mist
1:32 AM 35.6 °F - 35.6 °F 100% 29.94 in 0.5 mi Calm Calm - N/A Fog Fog
1:53 AM 36.0 °F - 36.0 °F 100% 29.94 in 1.8 mi Calm Calm - N/A   Scattered Clouds
1:55 AM 35.6 °F - 35.6 °F 100% 29.94 in 4.0 mi Calm Calm - N/A   Mostly Cloudy
1:59 AM 35.6 °F - 35.6 °F 100% 29.94 in 1.5 mi Calm Calm - N/A   Mostly Cloudy
2:06 AM 35.6 °F - 35.6 °F 100% 29.95 in 0.2 mi Calm Calm - N/A Fog Fog
2:19 AM 35.6 °F - 35.6 °F 100% 29.95 in 0.8 mi Calm Calm - N/A   Mist
2:34 AM 35.6 °F - 35.6 °F 100% 29.95 in 0.2 mi Calm Calm - N/A Fog Fog
2:51 AM 33.8 °F - 33.8 °F 100% 29.96 in 0.5 mi Calm Calm - N/A Fog Fog
2:53 AM 34.0 °F - 34.0 °F 100% 29.95 in 0.5 mi Calm Calm - N/A Fog Fog
3:13 AM 33.8 °F - 33.8 °F 100% 29.96 in 0.2 mi Calm Calm - N/A Fog Fog
3:53 AM 34.0 °F - 34.0 °F 100% 29.95 in 0.2 mi Calm Calm - N/A Fog Fog
4:16 AM 33.8 °F - 33.8 °F 100% 29.95 in 0.5 mi Calm Calm - N/A Fog Fog
4:25 AM 33.8 °F - 33.8 °F 100% 29.96 in 0.8 mi Calm Calm - N/A   Mist
4:43 AM 33.8 °F - 33.8 °F 100% 29.96 in 1.2 mi Calm Calm - N/A   Mostly Cloudy
4:49 AM 33.8 °F - 33.8 °F 100% 29.96 in 2.0 mi Calm Calm - N/A   Scattered Clouds
4:53 AM 33.1 °F - 33.1 °F 100% 29.96 in 5.0 mi Calm Calm - N/A   Scattered Clouds
5:05 AM 33.8 °F - 32.0 °F 93% 29.97 in 2.0 mi Calm Calm - N/A   Partly Cloudy
5:14 AM 32.0 °F - 32.0 °F 100% 29.97 in 5.0 mi Calm Calm - N/A   Clear
5:53 AM 32.0 °F - 32.0 °F 100% 29.98 in 5.0 mi Calm Calm - N/A   Clear
6:37 AM 30.2 °F - 30.2 °F 100% 30.00 in 2.0 mi Calm Calm - N/A   Clear
6:46 AM 30.2 °F - 30.2 °F 100% 30.00 in 5.0 mi Calm Calm - N/A   Clear
6:53 AM 30.9 °F - 30.9 °F 100% 30.00 in 5.0 mi Calm Calm - N/A   Clear
7:12 AM 30.2 °F - 30.2 °F 100% 30.01 in 1.5 mi Calm Calm - N/A   Clear
7:27 AM 30.2 °F - 30.2 °F 100% 30.01 in 3.0 mi Calm Calm - N/A   Partly Cloudy
7:53 AM 33.1 °F - 32.0 °F 96% 30.01 in 10.0 mi Calm Calm - N/A   Partly Cloudy
8:53 AM 42.1 °F - 37.0 °F 82% 30.04 in 10.0 mi Calm Calm - N/A   Clear
9:53 AM 46.0 °F - 37.0 °F 71% 30.06 in 10.0 mi Calm Calm - N/A   Clear
10:53 AM 51.1 °F - 34.0 °F 52% 30.06 in 10.0 mi North 8.1 mph - N/A   Clear
11:53 AM 53.1 °F - 32.0 °F 45% 30.06 in 10.0 mi Variable 3.5 mph - N/A   Clear
12:53 PM 55.9 °F - 32.0 °F 40% 30.04 in 10.0 mi NNW 4.6 mph - N/A   Clear
1:53 PM 60.1 °F - 33.1 °F 36% 30.01 in 10.0 mi Calm Calm - N/A   Clear
2:53 PM 61.0 °F - 30.9 °F 32% 30.00 in 10.0 mi Variable 6.9 mph - N/A   Clear
3:53 PM 62.1 °F - 30.0 °F 30% 29.99 in 10.0 mi North 4.6 mph - N/A   Clear
4:53 PM 62.1 °F - 27.0 °F 26% 29.99 in 10.0 mi North 9.2 mph - N/A   Clear
5:53 PM 59.0 °F - 30.0 °F 33% 30.00 in 10.0 mi NNE 5.8 mph - N/A   Clear
6:53 PM 50.0 °F - 32.0 °F 50% 30.01 in 10.0 mi Calm Calm - N/A   Clear
7:53 PM 46.0 °F 44.8 °F 35.1 °F 66% 30.01 in 10.0 mi North 3.5 mph - N/A   Clear
8:53 PM 45.0 °F - 34.0 °F 65% 30.01 in 10.0 mi Calm Calm - N/A   Clear
9:53 PM 39.9 °F - 34.0 °F 79% 30.01 in 10.0 mi Calm Calm - N/A   Clear
10:53 PM 36.0 °F - 34.0 °F 93% 30.01 in 10.0 mi Calm Calm - N/A   Clear
11:53 PM 36.0 °F - 34.0 °F 93% 29.99 in 10.0 mi Calm Calm - N/A   Clear